Tracking 28790 objects as of 19-Apr-2024
HD Live streaming from Space Station
objects crossing your sky now

DELTA 1 DEB

Track DELTA 1 DEB now!
10-day predictions


NORAD ID: 21367
Int'l Code: 1975-052CM
Perigee: 1,093.4 km
Apogee: 1,205.9 km
Inclination: 99.9 °
Period: 108.2 minutes
Semi major axis: 7520 km
RCS: 0.0954 m2 (small)
Launch date: June 12, 1975
Source: United States (US)
Launch site: AIR FORCE WESTERN TEST RANGE (AFWTR)

Note: This is SATELLITE DEBRIS
Your satellite tracking list
Your tracking list is empty




NASA's NSSDC Master Catalog

Two Line Element Set (TLE):
1 21367U 75052CM  24109.78499091  .00000265  00000-0  63481-3 0  9999
2 21367  99.8533 204.9355 0074791  78.7031  45.1452 13.31133729597746
Source of the keplerian elements: AFSPC